Location: Unspecified
(56.5167°N, 0.0000°E)
Time: 14:31:33
(UTC+02:00)

CZ-3 Stage 3 - Visible Passes

Search period start: 04 October 2022 00:00
Search period end: 14 October 2022 00:00
Orbit: 380 x 34792 km, 30.7° (Epoch: 03 October)

Date Brightness Start Highest point End Pass type
(mag) Time Alt. Az. Time Alt. Az. Time Alt. Az.
04 Oct 9.1 17:05:52 10° W 18:27:05 35° WSW 22:40:06 10° WSW visible
05 Oct 7.7 13:19:35 10° WSW 14:15:36 53° S 21:33:28 10° SSW visible
07 Oct 9.0 16:52:30 10° W 18:12:15 35° WSW 22:24:50 10° WSW visible
08 Oct 7.7 13:06:31 10° WSW 13:59:47 53° S 21:18:01 10° SSW visible
10 Oct 8.9 16:39:04 10° W 17:57:22 36° WSW 22:09:30 10° WSW visible
11 Oct 7.6 12:53:23 10° WSW 13:44:05 53° S 21:02:25 10° SSW visible
13 Oct 8.8 16:25:37 10° W 17:42:26 36° WSW 21:54:06 10° WSW visible
